[Iaude] MPEC N38: 2024 MK2 [a=1.99,e=0.48,i=9.0,H=24.0]
    mpec at cfa.harvard.edu 
    mpec at cfa.harvard.edu
       
    Thu Jul  4 21:58:12 EDT 2024
    
    
  
M.P.E.C. 2024-N38                                  Issued 2024 July 5, 01:56 UT
     The Minor Planet Electronic Circulars contain information on unusual
         minor planets, routine data on comets and natural satellites,
         and occasional editorial announcements.  They are published
    on behalf of Division F of the International Astronomical Union by the
          Minor Planet Center, Smithsonian Astrophysical Observatory,
                          Cambridge, MA 02138, U.S.A.
			  
             Prepared using the Tamkin Foundation Computer Network
                              MPC at CFA.HARVARD.EDU
            URL https://www.minorplanetcenter.net/    ISSN 1523-6714
                                    2024 MK2                                    
Observations:
     K24M02K* C2024 06 30.51725021 24 55.984-34 30 18.97         20.27wXEN038F51
     K24M02K  C2024 06 30.52695821 25 01.480-34 28 56.94         20.37wXEN038F51
     K24M02K  C2024 06 30.53668321 25 06.935-34 27 34.78         20.44wXEN038F51
     K24M02K  C2024 06 30.54639721 25 12.434-34 26 11.84         20.44wXEN038F51
     K24M02K  C2024 07 01.10262621 30 58.85 -33 03 20.9                WEN038X09
     K24M02K  C2024 07 01.12004621 31 09.18 -33 00 51.3                WEN038X09
     K24M02K |C2024 07 02.33939021 43 23.470-29 50 09.90         19.6 GVEN038807
     K24M02K |C2024 07 02.34379021 43 25.930-29 49 26.50         20.4 GVEN038807
     K24M02K |C2024 07 02.34526021 43 26.770-29 49 11.90         20.2 GVEN038807
     K24M02K KC2024 07 02.65650821 46 35.988-28 57 00.54         20.0 GVEN038474
     K24M02K KC2024 07 02.65982221 46 37.793-28 56 26.74         20.2 GVEN038474
     K24M02K KC2024 07 02.66313721 46 39.677-28 55 52.75         20.0 GVEN038474
     K24M02K IC2024 07 05.02870222 10 09.14 -21 49 18.3          19.2 GVEN038L01
     K24M02K IC2024 07 05.03030822 10 10.01 -21 48 59.8          19.6 GVEN038L01
     K24M02K KC2024 07 05.03589822 10 13.14 -21 47 55.5          19.4 GVEN038L01
     K24M02K KB2024 07 05.05637122 10 25.72 -21 43 55.9          20.5 GXEN038I93
     K24M02K KB2024 07 05.06052822 10 27.96 -21 43 08.2          20.1 GXEN038I93
     K24M02K KB2024 07 05.06458522 10 30.21 -21 42 21.0          20.4 GXEN038I93
Observer details:
474 Mount John Observatory, Lake Tekapo.  Observers A. C. Gilmore, P. M.
    Kilmartin.  Measurer P. M. Kilmartin.  0.6-m f/6.3 Reflector + CCD.
807 Cerro Tololo Observatory, La Serena.  Observers T. Linder, R. Holmes.
    0.61-m f/6.8 Ritchey-Chretien + CCD.
F51 Pan-STARRS 1, Haleakala.  Observers J. Herman, T. Lowe, P. Minguez, A.
    Schultz, I. Smith.  Measurers K. Chambers, T. de Boer, J. Fairlamb, H.
    Gao, M. Huber, C.-C. Lin, E. Magnier, Y. Ramanjooloo, R. Wainscoat, R.
    Weryk.  1.8-m Ritchey-Chretien + CCD.
I93 St Pardon de Conques.  Observer F. Losse.  0.40-m f/3.7 reflector + CMO.
L01 Visnjan Observatory, Tican.  Observers K. Korlevic, L. Poropat.  Measurer
    K. Korlevic.  1.0-m f/2.9 reflector + CCD.
X09 Deep Random Survey, Rio Hurtado.  Observers A. Schnabel, D. Ruhela.
    Measurer S. Deen.  0.43-m reflector + CMOS.
Orbital elements:
2024 MK2                                                 Earth MOID = 0.0397 AU
Epoch 2024 Mar. 31.0 TT = JDT 2460400.5                 MPC                     
M 318.59362              (2000.0)            P               Q                  
n   0.35119372     Peri.   19.67795     +0.63931763     +0.75493312             
a   1.9896265      Node   290.35103     -0.72472039     +0.52806121             
e   0.4760278      Incl.    8.96554     -0.25700842     +0.38887960             
P   2.81           H   24.05          G   0.15           U   8                  
Residuals in seconds of arc
240630 F51  0.3-  0.3-    240702 807  0.1+  0.1-    240705 L01  0.2-  0.0
240630 F51  0.1+  0.1-    240702 807  0.0   0.3-    240705 L01  0.4-  0.0
240630 F51  0.2-  0.2-    240702 807  0.2+  0.2-    240705 L01  0.4+  0.1-
240630 F51  0.2+  0.3+    240702 474  0.6+  0.3-    240705 I93  0.5+  0.0
240701 X09  0.8+  1.4+    240702 474  0.4-  0.1+    240705 I93  0.2-  0.1-
240701 X09  0.3-  0.3+    240702 474  0.3-  0.5+    240705 I93  0.1+  0.3+
Ephemeris:
2024 MK2                 a,e,i = 1.99, 0.48, 9                   q = 1.0425
Date    TT    R. A. (2000) Decl.     Delta      r    Elong.  Phase     V
2024 06 05    18 15 24.6 -52 23 11   0.2119  1.1965   146.2    28.1    22.3
...
2024 06 20    19 45 11.3 -49 15 33   0.1282  1.1250   146.3    30.1    21.1
...
2024 06 28    20 59 21.5 -39 45 46   0.09427 1.0944   144.2    32.9    20.5
...
2024 07 04    22 00 00.6 -25 01 26   0.07816 1.0756   137.4    39.8    20.2
2024 07 05    22 09 49.5 -21 53 17   0.07660 1.0728   135.6    41.5    20.2
2024 07 06    22 19 27.1 -18 36 23   0.07541 1.0702   133.7    43.4    20.3
...
2024 07 12    23 11 55.1 +02 00 28   0.07638 1.0567   119.9    56.5    20.6
...
2024 07 20    00 05 31.3 +23 14 32   0.09528 1.0455   105.4    69.5    21.5
...
2024 08 04    01 06 01.3 +41 06 30   0.1515  1.0466    98.0    73.7    22.6
A. U. Tomatic                (C) Copyright 2024 MPC           M.P.E.C. 2024-N38
    
    
More information about the Iaude
mailing list